Orbital Elements at Epoch 2459200.5 (2020-Dec-17.0) TDB
Reference: JPL 21 (heliocentric ecliptic J2000)
Element | Value | Uncertainty (1-sigma) | Units |
e | .0941419061459112 | 4.0734e-08 | |
a | 3.002038979436583 | 2.2268e-08 | au |
q | 2.719421307588097 | 1.2434e-07 | au |
i | 11.34560801681215 | 4.5196e-06 | deg |
node | 70.3397374529585 | 3.311e-05 | deg |
peri | 227.9321601275875 | 5.2098e-05 | deg |
M | 62.30114494778808 | 3.7853e-05 | deg |
tp | 2458871.711631938810 (2020-Jan-23.21163194) | 0.00020098 | TDB |
period | 1899.865766531643 5.20 | 2.1139e-05 5.788e-08 | d yr |
n | .1894870713193642 | 2.1083e-09 | deg/d |
Q | 3.284656651285069 | 2.4364e-08 | au |
|
| | Orbit Determination Parameters
Additional Information
|